AWC973Y EGSS-EGHI

Flight info

Callsign AWC973Y
Flight time 0h 31m
Altitude 6000
Route NUGBO DCT SILVA DCT CPT
Aircraft A320/M-SDE3FGHIRWY/LB1

Departure

Time 2026-05-08 17:27
Airport London Stansted Airport (EGSS)

Arrival

Time 2026-05-08 17:58
Airport Southampton Airport (EGHI)
Time Latitude Longitude Altitude Speed Heading
2026-05-08 17:23 51.88121 0.22135 341 ft 0 kts 287°
2026-05-08 17:24 51.88120 0.22123 339 ft 2 kts 263°
2026-05-08 17:24 51.88101 0.22107 339 ft 5 kts 179°
2026-05-08 17:24 51.88067 0.22152 340 ft 8 kts 156°
2026-05-08 17:25 51.87997 0.22133 345 ft 12 kts 194°
2026-05-08 17:25 51.87903 0.22088 341 ft 18 kts 195°
2026-05-08 17:25 51.87772 0.21988 338 ft 24 kts 221°
2026-05-08 17:25 51.87675 0.21906 336 ft 14 kts 162°
2026-05-08 17:26 51.87563 0.21960 338 ft 17 kts 159°
2026-05-08 17:26 51.87569 0.22084 335 ft 12 kts 43°
2026-05-08 17:26 51.87770 0.22391 346 ft 82 kts 43°
2026-05-08 17:26 51.88381 0.23315 396 ft 148 kts 46°
2026-05-08 17:27 51.89193 0.24478 1124 ft 162 kts 46°
2026-05-08 17:27 51.90056 0.25773 1863 ft 179 kts 46°
2026-05-08 17:27 51.91016 0.27247 2454 ft 202 kts 46°
2026-05-08 17:27 51.92105 0.28888 3097 ft 226 kts 41°
2026-05-08 17:28 51.93603 0.29901 3994 ft 244 kts
2026-05-08 17:28 51.95334 0.29388 4910 ft 268 kts 331°
2026-05-08 17:28 51.96694 0.27263 5676 ft 277 kts 300°
2026-05-08 17:28 51.97373 0.24365 5958 ft 274 kts 283°
2026-05-08 17:29 51.97727 0.21331 6082 ft 274 kts 277°
2026-05-08 17:29 51.97962 0.18269 6106 ft 273 kts 276°
2026-05-08 17:29 51.98167 0.15417 6110 ft 273 kts 276°
2026-05-08 17:29 51.98410 0.12355 6109 ft 272 kts 277°
2026-05-08 17:30 51.98686 0.09325 6107 ft 273 kts 278°
2026-05-08 17:30 51.98866 0.06249 6107 ft 272 kts 268°
2026-05-08 17:30 51.98606 0.03208 6109 ft 271 kts 256°
2026-05-08 17:30 51.98206 0.00219 6106 ft 271 kts 257°
2026-05-08 17:31 51.97815 -0.02766 6103 ft 271 kts 257°
2026-05-08 17:31 51.97427 -0.05757 6103 ft 271 kts 257°
2026-05-08 17:31 51.97040 -0.08749 6105 ft 271 kts 257°
2026-05-08 17:31 51.96653 -0.11740 6105 ft 271 kts 257°
2026-05-08 17:32 51.96266 -0.14731 6108 ft 271 kts 257°
2026-05-08 17:32 51.95878 -0.17728 6108 ft 271 kts 257°
2026-05-08 17:32 51.95489 -0.20719 6109 ft 271 kts 257°
2026-05-08 17:32 51.95098 -0.23712 6110 ft 271 kts 257°
2026-05-08 17:33 51.94708 -0.26703 6111 ft 271 kts 257°
2026-05-08 17:33 51.94316 -0.29689 6112 ft 271 kts 256°
2026-05-08 17:33 51.93917 -0.32713 6112 ft 271 kts 256°
2026-05-08 17:33 51.93523 -0.35695 6110 ft 271 kts 257°
2026-05-08 17:34 51.93128 -0.38683 6111 ft 271 kts 256°
2026-05-08 17:34 51.92732 -0.41665 6111 ft 271 kts 256°
2026-05-08 17:34 51.92335 -0.44650 6107 ft 271 kts 256°
2026-05-08 17:34 51.91939 -0.47630 6112 ft 271 kts 256°
2026-05-08 17:35 51.91542 -0.50617 6109 ft 271 kts 256°
2026-05-08 17:35 51.91145 -0.53603 6110 ft 271 kts 256°
2026-05-08 17:35 51.90746 -0.56582 6107 ft 271 kts 256°
2026-05-08 17:35 51.90345 -0.59562 6106 ft 271 kts 256°
2026-05-08 17:36 51.89938 -0.62581 6108 ft 271 kts 256°
2026-05-08 17:36 51.89537 -0.65559 6079 ft 271 kts 256°
2026-05-08 17:36 51.89135 -0.68538 6081 ft 271 kts 256°
2026-05-08 17:36 51.88732 -0.71515 6084 ft 271 kts 256°
2026-05-08 17:37 51.88328 -0.74494 6080 ft 271 kts 256°
2026-05-08 17:37 51.87923 -0.77468 6083 ft 271 kts 255°
2026-05-08 17:37 51.87518 -0.80445 6077 ft 271 kts 256°
2026-05-08 17:37 51.87111 -0.83422 6075 ft 271 kts 256°
2026-05-08 17:38 51.86702 -0.86396 6068 ft 271 kts 256°
2026-05-08 17:38 51.86291 -0.89372 6060 ft 271 kts 255°
2026-05-08 17:38 51.85880 -0.92345 6059 ft 271 kts 256°
2026-05-08 17:38 51.85469 -0.95328 6064 ft 272 kts 255°
2026-05-08 17:39 51.84778 -0.98227 6057 ft 269 kts 237°
2026-05-08 17:39 51.83906 -1.00087 6065 ft 267 kts 224°
2026-05-08 17:39 51.82435 -1.01875 6057 ft 264 kts 206°
2026-05-08 17:39 51.80737 -1.02978 6059 ft 263 kts 199°
2026-05-08 17:40 51.79017 -1.04001 6054 ft 263 kts 199°
2026-05-08 17:40 51.77301 -1.05035 6043 ft 263 kts 199°
2026-05-08 17:40 51.75588 -1.06076 6066 ft 263 kts 199°
2026-05-08 17:40 51.73869 -1.07123 6065 ft 264 kts 199°
2026-05-08 17:41 51.72732 -1.07813 6066 ft 264 kts 199°
2026-05-08 17:41 51.71006 -1.08857 6069 ft 265 kts 199°
2026-05-08 17:41 51.69284 -1.09896 6061 ft 265 kts 199°
2026-05-08 17:41 51.67561 -1.10934 6068 ft 265 kts 199°
2026-05-08 17:42 51.65794 -1.11999 6065 ft 265 kts 199°
2026-05-08 17:42 51.64090 -1.13024 6061 ft 265 kts 199°
2026-05-08 17:42 51.62362 -1.14064 6061 ft 265 kts 199°
2026-05-08 17:42 51.60630 -1.15105 6062 ft 265 kts 199°
2026-05-08 17:43 51.58904 -1.16145 6061 ft 265 kts 199°
2026-05-08 17:43 51.57171 -1.17183 6066 ft 265 kts 199°
2026-05-08 17:43 51.55441 -1.18214 6060 ft 266 kts 199°
2026-05-08 17:43 51.53708 -1.19244 6064 ft 266 kts 199°
2026-05-08 17:44 51.51974 -1.20275 6058 ft 266 kts 199°
2026-05-08 17:44 51.50238 -1.21309 6057 ft 266 kts 199°
2026-05-08 17:44 51.48446 -1.22013 6061 ft 265 kts 185°
2026-05-08 17:44 51.46605 -1.22179 6061 ft 266 kts 182°
2026-05-08 17:45 51.44757 -1.22325 6060 ft 266 kts 182°
2026-05-08 17:45 51.42912 -1.22476 6060 ft 266 kts 182°
2026-05-08 17:45 51.41063 -1.22628 6053 ft 266 kts 182°
2026-05-08 17:45 51.39214 -1.22779 6058 ft 266 kts 182°
2026-05-08 17:46 51.37345 -1.22935 6061 ft 266 kts 182°
2026-05-08 17:46 51.35496 -1.23088 6064 ft 266 kts 182°
2026-05-08 17:46 51.33647 -1.23239 6064 ft 266 kts 182°
2026-05-08 17:46 51.31799 -1.23388 6065 ft 266 kts 182°
2026-05-08 17:47 51.29948 -1.23539 6069 ft 266 kts 182°
2026-05-08 17:47 51.28099 -1.23706 6061 ft 267 kts 183°
2026-05-08 17:47 51.26247 -1.23882 6063 ft 266 kts 183°
2026-05-08 17:47 51.25025 -1.23997 6072 ft 266 kts 183°
2026-05-08 17:48 51.22555 -1.24231 6071 ft 266 kts 183°
2026-05-08 17:48 51.20778 -1.24399 6074 ft 266 kts 183°
2026-05-08 17:48 51.18956 -1.24840 6062 ft 267 kts 200°
2026-05-08 17:48 51.17394 -1.26414 6061 ft 267 kts 218°
2026-05-08 17:49 51.15992 -1.28360 6051 ft 268 kts 220°
2026-05-08 17:49 51.14606 -1.30342 6056 ft 268 kts 221°
2026-05-08 17:49 51.13219 -1.32325 6058 ft 268 kts 220°
2026-05-08 17:49 51.11829 -1.34315 6056 ft 268 kts 220°
2026-05-08 17:50 51.10448 -1.36292 6057 ft 268 kts 221°
2026-05-08 17:50 51.08937 -1.37975 6060 ft 265 kts 205°
2026-05-08 17:50 51.07229 -1.39088 6075 ft 265 kts 198°
2026-05-08 17:50 51.05475 -1.39959 6072 ft 264 kts 196°
2026-05-08 17:51 51.03711 -1.40797 5910 ft 264 kts 196°
2026-05-08 17:51 51.01930 -1.41523 5646 ft 261 kts 185°
2026-05-08 17:51 51.00166 -1.41102 5391 ft 260 kts 156°
2026-05-08 17:51 50.98757 -1.39364 5131 ft 259 kts 128°
2026-05-08 17:52 50.97952 -1.36817 4880 ft 258 kts 112°
2026-05-08 17:52 50.97335 -1.34173 4620 ft 253 kts 111°
2026-05-08 17:52 50.96685 -1.28833 4097 ft 250 kts 79°
2026-05-08 17:53 50.97496 -1.26416 3834 ft 252 kts 48°
2026-05-08 17:53 50.98945 -1.24866 3589 ft 253 kts 28°
2026-05-08 17:53 51.00561 -1.23802 3372 ft 248 kts 21°
2026-05-08 17:53 51.02159 -1.22918 3240 ft 239 kts 21°
2026-05-08 17:54 51.03728 -1.22196 3119 ft 232 kts
2026-05-08 17:54 51.05278 -1.22614 3006 ft 225 kts 334°
2026-05-08 17:54 51.06362 -1.24274 3023 ft 209 kts 297°
2026-05-08 17:54 51.06701 -1.26453 2838 ft 201 kts 266°
2026-05-08 17:55 51.06302 -1.28500 2588 ft 187 kts 234°
2026-05-08 17:55 51.05410 -1.29826 2469 ft 170 kts 206°
2026-05-08 17:55 51.04341 -1.30499 2058 ft 161 kts 196°
2026-05-08 17:55 51.03274 -1.31084 1767 ft 161 kts 195°
2026-05-08 17:56 51.02224 -1.31665 1503 ft 157 kts 196°
2026-05-08 17:56 51.01253 -1.32208 1311 ft 137 kts 195°
2026-05-08 17:56 51.00385 -1.32694 1098 ft 128 kts 193°
2026-05-08 17:56 50.99561 -1.33152 935 ft 123 kts 194°
2026-05-08 17:57 50.98755 -1.33604 756 ft 121 kts 195°
2026-05-08 17:57 50.97970 -1.34053 541 ft 122 kts 194°
2026-05-08 17:57 50.97174 -1.34486 362 ft 118 kts 194°
2026-05-08 17:57 50.96401 -1.34917 203 ft 118 kts 194°
2026-05-08 17:58 50.95616 -1.35355 54 ft 117 kts 195°
2026-05-08 17:58 50.94965 -1.35707 40 ft 75 kts 199°
2026-05-08 17:58 50.94667 -1.35876 40 ft 24 kts 200°
2026-05-08 17:58 50.94563 -1.35974 39 ft 13 kts 257°
2026-05-08 17:59 50.94599 -1.36108 39 ft 15 kts 314°
2026-05-08 17:59 50.94711 -1.36115 39 ft 19 kts 19°
2026-05-08 17:59 50.94836 -1.36043 38 ft 18 kts 19°
2026-05-08 17:59 50.94907 -1.36102 37 ft 13 kts 290°
2026-05-08 18:00 50.94926 -1.36193 39 ft 2 kts 289°
2026-05-08 18:00 50.94984 -1.36179 38 ft 3 kts 19°
2026-05-08 18:00 50.94986 -1.36178 39 ft 0 kts 19°